Voltar ao catálogo

EUTE 65W

AtivoComunicaçõesGEO
NORAD 41382·PAYLOAD·🇪🇺 EU

Lançado Mar 9, 2016 de Guiana Space Centre

Loading…

TLE

AtualizadoSource: Space-Track

Época: Sep 14, 2026, 13:29 UTC

1 41382U 16014A   26257.56218763 -.00000284  00000-0  00000-0 0  9995
2 41382   0.0718 315.3719 0002198 210.9614 324.4096  1.00272567 38423

Acompanhe EUTE 65W em tempo real com AllMySat

Download on the App Store